{"data":{"norad_id":64005,"intl_designator":"2025-101M","name":"STARLINK-33936","alt_names":[],"object_type":"PAYLOAD","status":"ACTIVE","operator":null,"country":"US","launch_date":"2025-05-14","launch_site_code":"AFETR","launch_vehicle":null,"mission":null,"orbit_class":"UNKNOWN","rcs_meters":null,"size_class":null,"mass_kg":null,"dimensions":null,"purposes":["comms"],"wikipedia_slug":null,"has_3d_model":false,"image_url":null,"decayed_at":null,"tle_current":{"epoch":"2026-05-25T02:33:49.761216Z","epoch_age_seconds":72589,"freshness":"FRESH","line1":"1 64005U 25101M   26145.10682594  .00013795  00000+0  50979-3 0  9994","line2":"2 64005  43.0003 286.2808 0001670 275.8336  84.2325 15.27585465 58745","mean_motion":15.27585465,"eccentricity":0.000167,"inclination_deg":43.0003,"raan_deg":286.2808,"arg_perigee_deg":275.8336,"mean_anomaly_deg":84.2325,"bstar":0.00050979,"rev_number":5874,"period_min":94.266411470471,"perigee_km":481.88691656719,"apogee_km":484.17854725765,"semimajor_km":6861.1697319124,"source":"CELESTRAK","updated_at":"2026-05-25T13:38:20.219869Z"}}}